Flight Track Log - Related Links

Times and Time Zones

All times are in EDT time to prevent confusion due to time zone crossing. See the N472ER flight status page for this flight to view local times or setup timezone preferences in your user account.

Time Position Orientation Groundspeed Altitude Reporting Facility
EDT Latitude Longitude Course Direction KTS MPH feet Rate Location/Type
Mon 08:04:04 AM 29.0947 -81.0628 141° Southeast 81 93 3,500  Level Jacksonville Center
Mon 08:05:05 AM 29.0800 -81.0489 140° Southeast 74 85 4,100 621 Climbing Jacksonville Center
Mon 08:06:00 AM 29.0611 -81.0397 157° South 76 87 4,700 639 Climbing Jacksonville Center
Mon 08:07:07 AM 29.0400 -81.0186 139° Southeast 84 97 5,400 335 Climbing Jacksonville Center
Mon 08:08:41 AM 29.0000 -81.0000 158° South 109 125 5,600 77 Climbing Orlando TRACON
Mon 08:09:42 AM 28.9833 -80.9833 139° Southeast 117 135 5,600 -99 Level Orlando TRACON
Mon 08:10:42 AM 28.9500 -80.9667 156° South 116 133 5,400  Descending Orlando TRACON
Mon 08:11:42 AM 28.9167 -80.9500 156° South 99 114 5,600 100 Climbing Orlando TRACON
Mon 08:12:42 AM 28.8833 -80.9333 156° South 113 130 5,600  Level Orlando TRACON
Mon 08:13:42 AM 28.8667 -80.9333 180° South 110 127 5,600  Level Orlando TRACON
Mon 08:14:48 AM 28.8333 -80.9167 156° South 110 127 5,600  Level Orlando TRACON
Mon 08:15:49 AM 28.8000 -80.9167 180° South 112 129 5,600 -50 Level Orlando TRACON
Mon 08:16:49 AM 28.7667 -80.9000 156° South 113 130 5,500 -50 Descending Orlando TRACON
Mon 08:17:49 AM 28.7500 -80.8833 139° Southeast 111 128 5,500  Level Orlando TRACON
Mon 08:18:49 AM 28.7167 -80.8833 180° South 110 127 5,500  Level Orlando TRACON
Mon 08:19:49 AM 28.6833 -80.8833 180° South 108 124 5,500 48 Level Orlando TRACON
Mon 08:20:55 AM 28.6500 -80.8667 156° South 106 122 5,600 55 Climbing Orlando TRACON
Mon 08:21:38 AM 28.6333 -80.8667 180° South 106 122 5,600  Level Orlando TRACON
Mon 08:22:44 AM 28.6000 -80.8500 156° South 110 127 5,600  Level Orlando TRACON
Mon 08:23:44 AM 28.5667 -80.8333 156° South 111 128 5,600  Level Orlando TRACON
Mon 08:24:56 AM 28.5333 -80.8167 156° South 110 127 5,600  Level Orlando TRACON
Mon 08:25:44 AM 28.5167 -80.8167 180° South 111 128 5,600  Level Orlando TRACON
Mon 08:26:38 AM 28.4833 -80.8000 156° South 109 125 5,600  Level Orlando TRACON
Mon 08:27:44 AM 28.4667 -80.7833 139° Southeast 110 127 5,600  Level Orlando TRACON
Mon 08:28:38 AM 28.4333 -80.7667 156° South 110 127 5,600 -50 Level Orlando TRACON
Mon 08:29:44 AM 28.4000 -80.7500 156° South 111 128 5,500  Descending Orlando TRACON
Mon 08:30:44 AM 28.3833 -80.7500 180° South 107 123 5,600 50 Climbing Orlando TRACON
Mon 08:31:45 AM 28.3500 -80.7333 156° South 109 125 5,600  Level Orlando TRACON
Mon 08:32:51 AM 28.3167 -80.7167 156° South 110 127 5,600  Level Orlando TRACON
Mon 08:33:51 AM 28.2833 -80.7000 156° South 114 131 5,600 -50 Level Orlando TRACON
Mon 08:34:51 AM 28.2667 -80.6833 139° Southeast 112 129 5,500 -50 Descending Orlando TRACON
Mon 08:35:51 AM 28.2333 -80.6667 156° South 113 130 5,500 48 Level Orlando TRACON
Mon 08:36:57 AM 28.2000 -80.6500 156° South 110 127 5,600 50 Climbing Orlando TRACON
Mon 08:37:51 AM 28.1667 -80.6333 156° South 113 130 5,600  Level Orlando TRACON
Mon 08:39:29 AM 28.1264 -80.6164 160° South 116 133 5,600  Level Miami Center
Mon 08:40:29 AM 28.0994 -80.6014 154° Southeast 116 133 5,600  Level Miami Center
Mon 08:41:29 AM 28.0686 -80.5911 164° South 111 128 5,600  Level Miami Center
Mon 08:42:29 AM 28.0436 -80.5831 164° South 106 122 5,600 50 Level Miami Center
Mon 08:43:29 AM 28.0125 -80.5775 171° South 106 122 5,700  Climbing Miami Center
Mon 08:44:29 AM 27.9772 -80.5669 165° South 106 122 5,600 -100 Descending Miami Center
Mon 08:45:29 AM 27.9486 -80.5494 152° Southeast 106 122 5,500  Descending Miami Center
Mon 08:46:29 AM 27.9239 -80.5369 156° South 111 128 5,600  Climbing Miami Center
Mon 08:47:29 AM 27.8928 -80.5217 157° South 111 128 5,500 -350 Descending Miami Center
Mon 08:48:29 AM 27.8619 -80.5044 154° Southeast 111 128 4,900 -650 Descending Miami Center
Mon 08:49:29 AM 27.8353 -80.4917 157° South 111 128 4,200 -44 Descending Miami Center
Mon 10:02:53 AM 27.8294 -80.4728 109° East 121 139 1,600 -36 Descending Miami Center
Mon 10:03:53 AM 27.8519 -80.4853 334° Northwest 99 114 1,500  Descending Miami Center
Mon 10:05:31 AM 27.9000 -80.5000 345° North 131 151 1,600 38 Climbing Orlando TRACON
Mon 10:06:30 AM 27.9167 -80.5167 319° Northwest 98 113 1,600  Level Orlando TRACON
Mon 10:07:31 AM 27.9500 -80.5167 360° North 104 120 1,600 -99 Level Orlando TRACON
Mon 10:08:31 AM 27.9667 -80.5333 319° Northwest 111 128 1,400 -50 Descending Orlando TRACON
Mon 10:09:31 AM 28.0000 -80.5667 319° Northwest 102 117 1,500 53 Climbing Orlando TRACON
Mon 10:10:25 AM 28.0167 -80.5833 319° Northwest 106 122 1,500  Level Orlando TRACON
Mon 10:11:31 AM 28.0500 -80.6000 336° Northwest 111 128 1,500 -189 Level Orlando TRACON
Mon 10:12:32 AM 28.0667 -80.6167 319° Northwest 104 120 1,100 -298 Descending Orlando TRACON
Mon 10:13:32 AM 28.0833 -80.6333 319° Northwest 101 116 900 -100 Descending Orlando TRACON
Mon 10:14:32 AM 28.1000 -80.6667 300° West 95 109 900 -209 Level Orlando TRACON
Mon 10:15:27 AM 28.1000 -80.6667 300° West 85 98 500 -436 Descending Orlando TRACON

Login

Don't have an account? Register now (free) for customized features, flight alerts, and more!